EZY351Q EGGD-EGPH

Flight info

Callsign EZY351Q
Flight time 0h 51m
Altitude 26000
Route BCN P69 DIZIM DCT KISWO/N0420F270 DCT AVTIC DCT ANJAK/N0426F280 N38 NOKIN UP16 RIBEL DCT INPIP
Aircraft A320/M-SDE3FGHIRWY/LB1

Departure

Time 2026-04-25 11:43
Airport Bristol Airport (EGGD)

Arrival

Time 2026-04-25 12:35
Airport Edinburgh Airport (EGPH)
Time Latitude Longitude Altitude Speed Heading
2026-04-25 11:17 51.38543 -2.71545 639 ft 0 kts 356°
2026-04-25 11:35 51.38537 -2.71544 623 ft 4 kts 356°
2026-04-25 11:35 51.38510 -2.71542 623 ft 4 kts 356°
2026-04-25 11:35 51.38483 -2.71539 621 ft 4 kts 356°
2026-04-25 11:35 51.38462 -2.71537 616 ft 4 kts 342°
2026-04-25 11:36 51.38445 -2.71515 623 ft 4 kts 279°
2026-04-25 11:36 51.38445 -2.71486 619 ft 0 kts 266°
2026-04-25 11:38 51.38442 -2.71540 625 ft 11 kts 266°
2026-04-25 11:38 51.38436 -2.71701 614 ft 16 kts 266°
2026-04-25 11:39 51.38431 -2.71876 606 ft 15 kts 270°
2026-04-25 11:39 51.38432 -2.72041 605 ft 15 kts 269°
2026-04-25 11:39 51.38426 -2.72193 612 ft 12 kts 265°
2026-04-25 11:39 51.38421 -2.72305 609 ft 8 kts 266°
2026-04-25 11:40 51.38418 -2.72401 611 ft 11 kts 266°
2026-04-25 11:40 51.38412 -2.72555 611 ft 18 kts 266°
2026-04-25 11:40 51.38403 -2.72795 611 ft 24 kts 266°
2026-04-25 11:40 51.38391 -2.73087 605 ft 27 kts 266°
2026-04-25 11:41 51.38364 -2.73297 616 ft 14 kts 230°
2026-04-25 11:41 51.38295 -2.73341 618 ft 8 kts 181°
2026-04-25 11:41 51.38252 -2.73334 621 ft 10 kts 169°
2026-04-25 11:41 51.38215 -2.73268 627 ft 7 kts 87°
2026-04-25 11:42 51.38215 -2.73255 625 ft 0 kts 86°
2026-04-25 11:43 51.38219 -2.73165 632 ft 38 kts 87°
2026-04-25 11:43 51.38252 -2.72318 630 ft 112 kts 87°
2026-04-25 11:43 51.38311 -2.70763 729 ft 156 kts 87°
2026-04-25 11:43 51.38367 -2.69152 1552 ft 146 kts 87°
2026-04-25 11:44 51.38424 -2.67481 2100 ft 159 kts 86°
2026-04-25 11:44 51.38481 -2.65618 2444 ft 178 kts 88°
2026-04-25 11:44 51.38543 -2.63508 2719 ft 202 kts 88°
2026-04-25 11:44 51.38617 -2.61151 3052 ft 222 kts 88°
2026-04-25 11:45 51.38700 -2.58669 3355 ft 244 kts 88°
2026-04-25 11:45 51.39070 -2.55939 3703 ft 261 kts 61°
2026-04-25 11:45 51.40378 -2.53927 4265 ft 268 kts 25°
2026-04-25 11:45 51.42206 -2.53464 4865 ft 271 kts 349°
2026-04-25 11:46 51.43880 -2.54746 5467 ft 271 kts 316°
2026-04-25 11:46 51.45086 -2.57069 5906 ft 273 kts 302°
2026-04-25 11:46 51.46043 -2.59707 6538 ft 274 kts 297°
2026-04-25 11:46 51.46930 -2.62409 7629 ft 274 kts 297°
2026-04-25 11:47 51.47846 -2.65115 8587 ft 279 kts 299°
2026-04-25 11:47 51.48816 -2.67799 9551 ft 283 kts 300°
2026-04-25 11:47 51.49853 -2.70513 10418 ft 292 kts 301°
2026-04-25 11:47 51.50992 -2.73382 10789 ft 316 kts 302°
2026-04-25 11:48 51.52233 -2.76434 11251 ft 334 kts 303°
2026-04-25 11:48 51.53526 -2.79581 12017 ft 340 kts 303°
2026-04-25 11:48 51.54845 -2.82774 12844 ft 345 kts 303°
2026-04-25 11:48 51.56174 -2.86004 13689 ft 348 kts 302°
2026-04-25 11:49 51.57061 -2.88167 14206 ft 351 kts 302°
2026-04-25 11:49 51.58414 -2.91467 14936 ft 355 kts 302°
2026-04-25 11:49 51.59782 -2.94809 15653 ft 359 kts 302°
2026-04-25 11:49 51.61161 -2.98184 16399 ft 362 kts 302°
2026-04-25 11:50 51.63001 -3.02708 17374 ft 367 kts 302°
2026-04-25 11:50 51.64400 -3.06157 18092 ft 370 kts 302°
2026-04-25 11:50 51.65353 -3.08510 18564 ft 372 kts 302°
2026-04-25 11:50 51.66775 -3.12020 19181 ft 375 kts 302°
2026-04-25 11:51 51.68209 -3.15555 19802 ft 378 kts 302°
2026-04-25 11:51 51.69748 -3.18947 20395 ft 382 kts 311°
2026-04-25 11:51 51.71768 -3.21765 20966 ft 388 kts 324°
2026-04-25 11:51 51.74188 -3.23733 21555 ft 394 kts 339°
2026-04-25 11:52 51.76873 -3.24704 22171 ft 400 kts 353°
2026-04-25 11:52 51.79679 -3.24579 22723 ft 407 kts
2026-04-25 11:52 51.82491 -3.23889 23278 ft 410 kts
2026-04-25 11:52 51.85328 -3.23179 23818 ft 414 kts
2026-04-25 11:53 51.88182 -3.22463 24274 ft 417 kts
2026-04-25 11:53 51.91057 -3.21747 24718 ft 420 kts
2026-04-25 11:53 51.93952 -3.21029 25146 ft 423 kts
2026-04-25 11:53 51.96872 -3.20305 25587 ft 425 kts
2026-04-25 11:54 51.99811 -3.19576 26016 ft 428 kts
2026-04-25 11:54 52.02762 -3.18843 26428 ft 432 kts
2026-04-25 11:54 52.08775 -3.18179 27236 ft 436 kts
2026-04-25 11:55 52.11811 -3.17954 27642 ft 438 kts
2026-04-25 11:55 52.14868 -3.17724 28049 ft 441 kts
2026-04-25 11:55 52.17946 -3.17487 28196 ft 440 kts
2026-04-25 11:56 52.23985 -3.17003 28219 ft 432 kts
2026-04-25 11:56 52.29997 -3.16530 28221 ft 433 kts
2026-04-25 11:57 52.36015 -3.16073 28220 ft 433 kts
2026-04-25 11:57 52.42026 -3.15617 28219 ft 433 kts
2026-04-25 11:58 52.48037 -3.15143 28220 ft 433 kts
2026-04-25 11:58 52.54085 -3.14658 28359 ft 446 kts
2026-04-25 11:58 52.57218 -3.14415 28497 ft 455 kts
2026-04-25 11:59 52.60407 -3.14171 28636 ft 462 kts
2026-04-25 11:59 52.63637 -3.13923 28840 ft 468 kts
2026-04-25 11:59 52.66899 -3.13669 29217 ft 469 kts
2026-04-25 12:00 52.73332 -3.11855 30148 ft 473 kts 17°
2026-04-25 12:00 52.76355 -3.09733 30564 ft 473 kts 24°
2026-04-25 12:00 52.82297 -3.05088 31379 ft 472 kts 24°
2026-04-25 12:01 52.85261 -3.02770 31785 ft 471 kts 24°
2026-04-25 12:01 52.88224 -3.00447 32178 ft 470 kts 24°
2026-04-25 12:01 52.91230 -2.98336 32574 ft 469 kts 19°
2026-04-25 12:01 52.94289 -2.96465 32960 ft 468 kts 19°
2026-04-25 12:02 53.00393 -2.92738 33791 ft 467 kts 18°
2026-04-25 12:02 53.03443 -2.90872 34208 ft 466 kts 18°
2026-04-25 12:02 53.06478 -2.89007 34572 ft 465 kts 19°
2026-04-25 12:03 53.09511 -2.87144 34933 ft 464 kts 19°
2026-04-25 12:03 53.12539 -2.85281 35290 ft 463 kts 19°
2026-04-25 12:03 53.15554 -2.83421 35635 ft 462 kts 19°
2026-04-25 12:03 53.18573 -2.81553 35979 ft 461 kts 19°
2026-04-25 12:04 53.21579 -2.79689 36300 ft 461 kts 19°
2026-04-25 12:04 53.24573 -2.77827 36630 ft 460 kts 19°
2026-04-25 12:04 53.27570 -2.75958 36956 ft 459 kts 19°
2026-04-25 12:04 53.30553 -2.74095 37266 ft 458 kts 19°
2026-04-25 12:05 53.33541 -2.72230 37575 ft 457 kts 19°
2026-04-25 12:05 53.36524 -2.70364 37875 ft 456 kts 19°
2026-04-25 12:05 53.39497 -2.68503 38131 ft 456 kts 19°
2026-04-25 12:05 53.42467 -2.66640 38211 ft 456 kts 19°
2026-04-25 12:06 53.48402 -2.62905 38204 ft 455 kts 19°
2026-04-25 12:06 53.54293 -2.59199 38204 ft 455 kts 19°
2026-04-25 12:07 53.60210 -2.55463 38204 ft 453 kts 19°
2026-04-25 12:07 53.66111 -2.51723 38204 ft 453 kts 19°
2026-04-25 12:08 53.71983 -2.47985 38219 ft 453 kts 19°
2026-04-25 12:08 53.77909 -2.44216 38211 ft 453 kts 19°
2026-04-25 12:09 53.83808 -2.40441 38211 ft 453 kts 19°
2026-04-25 12:09 53.89703 -2.36651 38210 ft 453 kts 19°
2026-04-25 12:10 53.95610 -2.32888 38212 ft 453 kts 16°
2026-04-25 12:10 54.01789 -2.31323 38218 ft 449 kts 356°
2026-04-25 12:11 54.07870 -2.33297 38215 ft 444 kts 337°
2026-04-25 12:11 54.13554 -2.37229 38211 ft 444 kts 336°
2026-04-25 12:12 54.18356 -2.40560 38209 ft 445 kts 336°
2026-04-25 12:12 54.25022 -2.45190 38214 ft 445 kts 336°
2026-04-25 12:13 54.30765 -2.49199 38209 ft 445 kts 336°
2026-04-25 12:13 54.36505 -2.53218 38203 ft 446 kts 336°
2026-04-25 12:14 54.42244 -2.57247 38202 ft 446 kts 336°
2026-04-25 12:14 54.48005 -2.61308 37346 ft 453 kts 336°
2026-04-25 12:15 54.50946 -2.63392 36398 ft 458 kts 336°
2026-04-25 12:15 54.53894 -2.65485 35548 ft 460 kts 336°
2026-04-25 12:15 54.56865 -2.67595 34649 ft 464 kts 336°
2026-04-25 12:15 54.59857 -2.69716 33646 ft 467 kts 336°
2026-04-25 12:16 54.62884 -2.71863 32508 ft 473 kts 336°
2026-04-25 12:16 54.65943 -2.74037 31376 ft 478 kts 336°
2026-04-25 12:16 54.69025 -2.76235 30527 ft 477 kts 337°
2026-04-25 12:16 54.72074 -2.78419 29824 ft 471 kts 337°
2026-04-25 12:17 54.75043 -2.80549 29120 ft 464 kts 337°
2026-04-25 12:17 54.78001 -2.82672 28428 ft 457 kts 337°
2026-04-25 12:17 54.80926 -2.84771 27753 ft 451 kts 337°
2026-04-25 12:17 54.83813 -2.86842 27087 ft 446 kts 337°
2026-04-25 12:18 54.86662 -2.88891 26428 ft 441 kts 337°
2026-04-25 12:18 54.89481 -2.90924 25796 ft 436 kts 337°
2026-04-25 12:18 54.92264 -2.92932 25203 ft 431 kts 337°
2026-04-25 12:18 54.95018 -2.94920 24597 ft 426 kts 337°
2026-04-25 12:19 54.99531 -2.98187 23581 ft 419 kts 338°
2026-04-25 12:19 55.03102 -3.00778 22784 ft 411 kts 337°
2026-04-25 12:19 55.05727 -3.02683 22222 ft 406 kts 337°
2026-04-25 12:20 55.07448 -3.03937 21850 ft 403 kts 337°
2026-04-25 12:20 55.10884 -3.06450 21092 ft 397 kts 336°
2026-04-25 12:20 55.13416 -3.08302 20458 ft 394 kts 336°
2026-04-25 12:20 55.15972 -3.10175 19423 ft 403 kts 336°
2026-04-25 12:21 55.18574 -3.12088 18738 ft 404 kts 336°
2026-04-25 12:21 55.21142 -3.13976 18193 ft 398 kts 336°
2026-04-25 12:21 55.23681 -3.15843 17621 ft 393 kts 336°
2026-04-25 12:21 55.26156 -3.17665 17062 ft 388 kts 336°
2026-04-25 12:22 55.28624 -3.19485 16505 ft 383 kts 335°
2026-04-25 12:22 55.31062 -3.21281 15868 ft 373 kts 335°
2026-04-25 12:22 55.33428 -3.23024 14867 ft 366 kts 336°
2026-04-25 12:22 55.35755 -3.24747 14200 ft 358 kts 336°
2026-04-25 12:23 55.38027 -3.26432 13931 ft 348 kts 336°
2026-04-25 12:23 55.40251 -3.28083 13830 ft 351 kts 336°
2026-04-25 12:23 55.42507 -3.29763 13677 ft 353 kts 336°
2026-04-25 12:23 55.44769 -3.31449 13526 ft 354 kts 336°
2026-04-25 12:24 55.47038 -3.33136 13386 ft 354 kts 336°
2026-04-25 12:24 55.49304 -3.34858 13199 ft 354 kts 333°
2026-04-25 12:24 55.51328 -3.37281 12787 ft 353 kts 320°
2026-04-25 12:24 55.53228 -3.40014 12200 ft 350 kts 319°
2026-04-25 12:25 55.55077 -3.42765 11535 ft 349 kts 319°
2026-04-25 12:25 55.56930 -3.45562 10871 ft 348 kts 318°
2026-04-25 12:25 55.58757 -3.48320 10341 ft 343 kts 319°
2026-04-25 12:25 55.60566 -3.51044 9795 ft 339 kts 319°
2026-04-25 12:26 55.62328 -3.53685 9269 ft 323 kts 319°
2026-04-25 12:26 55.63996 -3.56175 8812 ft 304 kts 319°
2026-04-25 12:26 55.65572 -3.58525 8348 ft 288 kts 318°
2026-04-25 12:26 55.67046 -3.60724 7924 ft 273 kts 318°
2026-04-25 12:27 55.68463 -3.62844 7516 ft 261 kts 318°
2026-04-25 12:27 55.69822 -3.64870 7132 ft 249 kts 319°
2026-04-25 12:27 55.71131 -3.66785 6756 ft 239 kts 319°
2026-04-25 12:27 55.72399 -3.68627 6386 ft 234 kts 319°
2026-04-25 12:28 55.73654 -3.70444 6033 ft 231 kts 318°
2026-04-25 12:28 55.74874 -3.72212 5682 ft 222 kts 319°
2026-04-25 12:28 55.76020 -3.73955 5345 ft 212 kts 315°
2026-04-25 12:28 55.77134 -3.75590 5191 ft 207 kts 327°
2026-04-25 12:29 55.78482 -3.76506 5146 ft 210 kts 346°
2026-04-25 12:29 55.79948 -3.76544 5062 ft 214 kts
2026-04-25 12:29 55.81354 -3.75635 4903 ft 218 kts 28°
2026-04-25 12:29 55.82482 -3.73825 4681 ft 221 kts 52°
2026-04-25 12:30 55.83304 -3.71494 4399 ft 223 kts 57°
2026-04-25 12:30 55.84109 -3.69136 4100 ft 224 kts 58°
2026-04-25 12:30 55.84923 -3.66765 3802 ft 224 kts 58°
2026-04-25 12:30 55.85724 -3.64431 3507 ft 218 kts 58°
2026-04-25 12:31 55.86501 -3.62164 3216 ft 211 kts 58°
2026-04-25 12:31 55.87253 -3.59969 2936 ft 205 kts 59°
2026-04-25 12:31 55.87975 -3.57863 2684 ft 192 kts 60°
2026-04-25 12:31 55.88654 -3.55878 2411 ft 182 kts 60°
2026-04-25 12:32 55.89283 -3.54039 2173 ft 168 kts 60°
2026-04-25 12:32 55.89870 -3.52321 1963 ft 158 kts 62°
2026-04-25 12:32 55.90432 -3.50675 1753 ft 153 kts 61°
2026-04-25 12:32 55.90981 -3.49063 1524 ft 153 kts 61°
2026-04-25 12:33 55.91530 -3.47453 1316 ft 152 kts 60°
2026-04-25 12:33 55.92075 -3.45852 1128 ft 145 kts 59°
2026-04-25 12:33 55.92568 -3.44404 905 ft 132 kts 61°
2026-04-25 12:33 55.92875 -3.43502 790 ft 127 kts 60°
2026-04-25 12:34 55.93331 -3.42163 628 ft 127 kts 60°
2026-04-25 12:34 55.93786 -3.40834 422 ft 126 kts 59°
2026-04-25 12:34 55.94381 -3.39086 206 ft 123 kts 58°
2026-04-25 12:34 55.94530 -3.38647 136 ft 122 kts 58°
2026-04-25 12:35 55.95102 -3.36942 114 ft 61 kts 59°
2026-04-25 12:35 55.95220 -3.36595 113 ft 41 kts 58°
2026-04-25 12:35 55.95253 -3.36425 111 ft 10 kts 120°
2026-04-25 12:35 55.95208 -3.36366 114 ft 5 kts 149°
2026-04-25 12:36 55.95187 -3.36344 115 ft 2 kts 150°
2026-04-25 12:36 55.95172 -3.36328 113 ft 4 kts 149°
2026-04-25 12:36 55.95136 -3.36305 115 ft 6 kts 185°
2026-04-25 12:36 55.95109 -3.36355 114 ft 5 kts 240°
2026-04-25 12:37 55.95087 -3.36397 115 ft 4 kts 205°
2026-04-25 12:37 55.95061 -3.36396 114 ft 3 kts 159°
2026-04-25 12:37 55.95040 -3.36382 114 ft 3 kts 167°
2026-04-25 12:37 55.95021 -3.36393 115 ft 5 kts 212°
2026-04-25 12:38 55.94996 -3.36418 113 ft 3 kts 175°
2026-04-25 12:38 55.94977 -3.36398 116 ft 3 kts 147°
2026-04-25 12:38 55.94961 -3.36379 114 ft 3 kts 147°
2026-04-25 12:38 55.94945 -3.36362 114 ft 3 kts 149°
2026-04-25 12:39 55.94940 -3.36356 113 ft 0 kts 149°